Flag for U.S.A. Weather past 2 weeks in Denver, Colorado, U.S.A.

Now
76 °F

Passing clouds.


Feels Like: 77 °F
Forecast: 57 / 85 °F
Wind: 18 mph from Southeast

Location: Buckley Air Force Base

Current Time: Jul 28, 2015 at 12:53:44 PM

Latest Report: Jul 28, 2015 at 11:58 AM


Visibility: 10 mi

Pressure: 29.92 "Hg (24.92 "Hg at 1593m altitude)

Humidity: 27%

Dew point: 40 °F

Location of DenverLocation

Historic Weather in Denver — Graph

°F

Denver temperature yesterday

Maximum temperature yesterday: 92 °F (at 4:58 PM)
Minimum temperature yesterday: 62 °F (at 5:58 AM)
Average temperature yesterday: 78 °F

Past Weeks' High & Low Weather Summary

 TemperatureHumidityPressure
High92 °F (Jul 27, 4:58 PM)100% (Jul 19, 2:58 AM)30.09 "Hg (Jul 19, 2:58 AM)
Low54 °F (Jul 19, 5:58 AM)15% (Jul 17, 12:58 PM)29.59 "Hg (Jul 27, 5:58 PM)
Average72 °F51%29.88 "Hg
* Reported Jul 13 10:58 AM — Jul 28 10:58 AM, Denver, Weather by CustomWeather, © 2015

Note: Actual official high and low records may vary slightly from our data, if they occured in-between our weather recording intervals... More about our weather records

Advertising

Denver weather history for previous 24 hours

 ConditionsComfort  
Time TempWeatherWind HumidityBarometerVisibility
10:58 AM
Tue, Jul 28
73 °FPassing clouds.8 mph28%29.93 "Hg10 mi
9:58 AM69 °FPassing clouds.13 mph29%29.94 "Hg10 mi
8:58 AM66 °FPassing clouds.12 mph31%29.95 "Hg10 mi
7:58 AM62 °FPassing clouds.13 mph35%29.94 "Hg10 mi
6:58 AM59 °FPassing clouds.12 mph43%29.93 "Hg10 mi
5:58 AM55 °FPassing clouds.10 mph55%29.90 "Hg10 mi
4:58 AM56 °FPassing clouds.10 mph56%29.86 "Hg10 mi
3:58 AM61 °FPassing clouds.8 mph45%29.82 "Hg10 mi
2:58 AM62 °FPassing clouds.9 mph45%29.80 "Hg10 mi
1:58 AM65 °FPassing clouds.7 mph38%29.77 "Hg10 mi
12:58 AM67 °FPassing clouds.10 mph36%29.74 "Hg10 mi
11:58 PM
Mon, Jul 27
72 °FPassing clouds.8 mph36%29.71 "Hg10 mi
10:58 PM75 °FPassing clouds.8 mph30%29.70 "Hg10 mi
9:58 PM75 °FPassing clouds.7 mph42%29.69 "Hg10 mi
8:58 PM80 °FScattered clouds.7 mph33%29.65 "Hg10 mi
7:58 PM85 °FBroken clouds.10 mph29%29.62 "Hg10 mi
6:58 PM89 °FBroken clouds.8 mph22%29.61 "Hg10 mi
5:58 PM92 °FScattered clouds.18 mph22%29.59 "Hg10 mi
4:58 PM92 °FBroken clouds.12 mph20%29.60 "Hg10 mi
3:58 PM92 °FBroken clouds.20 mph20%29.59 "Hg10 mi
2:58 PM90 °FBroken clouds.12 mph22%29.64 "Hg10 mi
1:58 PM91 °FBroken clouds.16 mph21%29.65 "Hg10 mi
12:58 PM89 °FBroken clouds.5 mph23%29.67 "Hg10 mi
Weather by CustomWeather, © 2015

See weather overviewHow to use our weather pages